Current Version              Previous Version:    01  02  03  04  05  06  07  08  09  10  11  12  13  14  15  16  17  18  19  20  21  22  23  24  25  26  27  28  29  30  
   31  32  33  34  35  36  37  38  39  40  41  42  43  44  45  46  47  48  49  50  51  52  53  54  55  56  57  58  59  60  

[Printable]
737
ASUS44 KFWD 010805
RWRTX
NORTH TEXAS HOURLY WEATHER ROUNDUP
NATIONAL WEATHER SERVICE FORT WORTH TX
ISSUED BY NATIONAL WEATHER SERVICE TULSA OK
300 AM CDT WED OCT 01 2014

NOTE: "FAIR" INDICATES FEW OR NO CLOUDS BELOW 12,000 FEET WITH NO
SIGNIFICANT WEATHER AND/OR OBSTRUCTIONS TO VISIBILITY.

TXZ118-119-010900-
DALLAS/FORT WORTH METROPLEX

CITY           SKY/WX    TMP DP  RH WIND       PRES   REMARKS
DFW AIRPORT    CLEAR     77  69  76 S10       29.78S
DALLAS LOVE    CLEAR     77  69  76 S14       29.78F
FTW MEACHAM    CLEAR     78  67  68 S13       29.77S
DAL-EXECUTIVE  CLEAR     77  68  73 S7        29.79S
FTW-ALLIANCE   PTCLDY    76  67  73 S9        29.77S
FTW-NAS-JRB    CLEAR     79  65  62 S8        29.82S
FTW-SPINKS     CLEAR     75  67  76 S8        29.80S
ARLINGTON      CLEAR     76  68  76 SE9       29.79S
GRAND PRAIRIE  CLEAR     76  67  74 S8        29.80S
ADDISON        CLEAR     78  68  71 S7        29.80F
MESQUITE       SUNNY     73  69  87 SE6       29.81R
$$

TXZ091>094-102>105-117-120-121-131>134-010900-
NORTH CENTRAL TEXAS

CITY           SKY/WX    TMP DP  RH WIND       PRES   REMARKS
SHRMAN/DENISON SUNNY     75  67  76 SE10      29.80S
GAINESVILLE    CLEAR     73  67  84 SE5       29.80R
BOWIE          SUNNY     74  64  71 S7        29.78R
BRIDGEPORT     SUNNY     76  62  61 S8        29.78S
DECATUR        SUNNY     75  64  67 S13       29.78S
DENTON         CLEAR     74  68  81 S7        29.77S
MCKINNEY       CLEAR     74  68  81 SE8       29.79S
GREENVILLE     CLEAR     72  68  88 SE3       29.81S
TERRELL        CLEAR     74  69  85 S3        29.81R
WAXAHACHIE     SUNNY     72  69  89 SE5       29.81S
CLEBURNE       SUNNY     73  70  88 S10       29.81S
GRANBURY       SUNNY     76  66  71 E8        29.79S
$$

TXZ083>090-098>101-113>116-127>130-139>142-154-155-010900-
WESTERN NORTH TEXAS

CITY           SKY/WX    TMP DP  RH WIND       PRES   REMARKS
WICHITA FALLS  NOT AVBL
WF-KICKAPOO    TSTM      73  61  68 S16       29.75F
ABILENE        NOT AVBL
ABILENE-DYESS  CLEAR     76  62  61 S16G25    29.77R
BRECKENRIDGE   MOSUNNY   77  62  58 S14       29.77R
GRAHAM         MOSUNNY   77  62  60 S7        29.76R
MINERAL WELLS  CLEAR     71  62  73 SE9       29.76S
STEPHENVILLE   CLEAR     71  64  77 S5        29.83S
COMANCHE       SUNNY     72  64  74 S8        29.81S
BROWNWOOD      PTCLDY    70  63  78 S6        29.81S
COLEMAN        CLEAR     70  60  71 S5        29.81S
BRADY          SUNNY     70  63  78 SE6       29.82F
$$

TXZ143>147-156>162-174-175-010900-
CENTRAL TEXAS

CITY           SKY/WX    TMP DP  RH WIND       PRES   REMARKS
WACO           CLEAR     75  70  84 S10       29.81R
WACO-MCGREGOR  CLEAR     73  64  73 S9        29.82S
HILLSBORO      SUNNY     74  66  75 SE6       29.81S
CORSICANA      CLEAR     74  69  85 S7        29.83R
HEARNE         CLOUDY    73  71  92 SE6       29.81S
TEMPLE         MOCLDY    73  66  78 S10       29.81R
KILLEEN GRAY   PTCLDY    73  70  88 S6        29.81R
KILLEEN-SKYLRK CLEAR     73  66  78 S7        29.80R
GATESVILLE     SUNNY     72  70  94 SE3       29.84R
HAMILTON       SUNNY     72  66  83 S13       29.83S
LAMPASAS       SUNNY     76  73  92 S5        29.82S
$$

TXZ095>097-106>112-122>126-135>138-148>153-164>167-010900-
EAST TEXAS

CITY           SKY/WX    TMP DP  RH WIND       PRES   REMARKS
PARIS          CLEAR     70  61  73 E7        29.83S
MOUNT PLEASANT SUNNY     71  68  92 CALM      29.84R
GILMER         SUNNY     75  72  88 SE5       29.85R
MINEOLA        SUNNY     75  72  88 S5        29.83R
TYLER          CLEAR     74  70  87 S6        29.83R
LONGVIEW       CLEAR     73  69  87 S5        29.82R
PALESTINE      SUNNY     73  72  94 SE3       29.83R
HENDERSON      SUNNY     70  69  98 CALM      29.84R
NACOGDOCHES    CLOUDY    73  72  94 S5        29.84S
LUFKIN         CLOUDY    77  73  87 SE3       29.83R
$$

SUPPLEMENTAL OBSERVATIONS (CENTRAL)

CITY           SKY/WX    TMP DP  RH WIND       PRES   REMARKS
$$

SUPPLEMENTAL OBSERVATIONS (WEST)

CITY           SKY/WX    TMP DP  RH WIND       PRES   REMARKS
$$

SUPPLEMENTAL OBSERVATIONS (EAST)

CITY           SKY/WX    TMP DP  RH WIND       PRES   REMARKS
$$

SUPPLEMENTAL OBSERVATIONS ARE A COLLECTION OF AUTOMATED INSTRUMENTS
THAT ARE MAINTAINED BY A VARIETY OF FEDERAL AND STATE AGENCIES.
CERTAIN ELEMENTS...SUCH AS HUMIDITY VALUES AND SUSTAINED WIND
SPEEDS...MAY BE ESTIMATED.